TimeCDT,TemperatureF,Dew PointF,Humidity,Sea Level PressureIn,VisibilityMPH,Wind Direction,Wind SpeedMPH,Gust SpeedMPH,PrecipitationIn,Events,Conditions,WindDirDegrees,DateUTC
12:55 AM,48.0,35.1,61,29.83,10.0,South,12.7,19.6,N/A,,Clear,170,2012-10-13 05:55:00
1:55 AM,48.0,36.0,63,29.80,10.0,South,9.2,19.6,N/A,,Clear,180,2012-10-13 06:55:00
2:55 AM,46.0,36.0,68,29.75,10.0,South,10.4,-,N/A,,Clear,170,2012-10-13 07:55:00
3:55 AM,46.9,37.9,71,29.72,10.0,South,9.2,-,N/A,,Clear,170,2012-10-13 08:55:00
4:55 AM,48.0,39.0,71,29.73,10.0,SSE,10.4,19.6,N/A,,Clear,160,2012-10-13 09:55:00
5:55 AM,46.9,39.9,77,29.72,10.0,South,9.2,-,N/A,,Clear,170,2012-10-13 10:55:00
6:55 AM,46.0,41.0,83,29.71,10.0,South,5.8,-,N/A,,Clear,170,2012-10-13 11:55:00
7:55 AM,46.0,42.1,86,29.68,10.0,South,8.1,-,N/A,,Clear,170,2012-10-13 12:55:00
8:55 AM,46.9,43.0,86,29.70,8.0,Calm,Calm,-,N/A,,Clear,0,2012-10-13 13:55:00
9:55 AM,53.1,45.0,74,29.70,9.0,South,8.1,-,N/A,,Clear,190,2012-10-13 14:55:00
10:55 AM,53.1,44.1,71,29.68,10.0,South,4.6,-,N/A,,Clear,190,2012-10-13 15:55:00
11:55 AM,55.0,43.0,64,29.69,10.0,WNW,6.9,-,N/A,,Clear,300,2012-10-13 16:55:00
12:55 PM,57.0,43.0,59,29.69,10.0,Calm,Calm,-,N/A,,Clear,0,2012-10-13 17:55:00
1:55 PM,60.1,41.0,49,29.68,10.0,West,3.5,-,N/A,,Clear,270,2012-10-13 18:55:00
2:55 PM,61.0,39.9,46,29.67,10.0,North,9.2,-,N/A,,Clear,360,2012-10-13 19:55:00
3:55 PM,66.0,39.9,38,29.66,10.0,North,10.4,-,N/A,,Clear,350,2012-10-13 20:55:00
4:55 PM,68.0,39.9,36,29.67,10.0,North,4.6,-,N/A,,Clear,10,2012-10-13 21:55:00
5:55 PM,66.9,41.0,39,29.68,10.0,NNE,3.5,-,N/A,,Clear,20,2012-10-13 22:55:00
6:55 PM,60.1,39.9,47,29.71,10.0,NNE,3.5,-,N/A,,Clear,20,2012-10-13 23:55:00
7:55 PM,55.9,39.0,53,29.74,10.0,North,4.6,-,N/A,,Clear,360,2012-10-14 00:55:00
8:55 PM,46.9,36.0,66,29.78,5.0,NW,5.8,-,N/A,,Haze,320,2012-10-14 01:55:00
9:55 PM,55.0,36.0,49,29.78,10.0,North,13.8,-,N/A,,Clear,10,2012-10-14 02:55:00
10:55 PM,53.1,36.0,52,29.80,10.0,North,9.2,-,N/A,,Clear,360,2012-10-14 03:55:00
11:55 PM,45.0,34.0,65,29.83,9.0,NNW,11.5,-,N/A,,Clear,330,2012-10-14 04:55:00